RYR650D EDJA-LICJ

Flight info

Callsign RYR650D
Flight time 1h 31m
Altitude 37000
Route KPT4B KPT Z999 BEMKI L607 XEBIX Y740 NATAG DCT LORLO DCT BENUS DCT AMTEL DCT KONUT DCT GIANO
Aircraft B738/M-SDE2E3FGHIRWXY/LB1

Departure

Time 2026-04-10 12:56
Airport Memmingen Allgau Airport (EDJA)

Arrival

Time 2026-04-10 14:28
Airport Falcone–Borsellino Airport (LICJ)
Time Latitude Longitude Altitude Speed Heading
2026-04-10 12:08 47.98747 10.22793 2074 ft 0 kts 54°
2026-04-10 12:53 47.98742 10.22815 2074 ft 4 kts 147°
2026-04-10 12:53 47.98718 10.22805 2075 ft 3 kts 223°
2026-04-10 12:53 47.98692 10.22738 2075 ft 7 kts 238°
2026-04-10 12:53 47.98645 10.22714 2075 ft 7 kts 179°
2026-04-10 12:54 47.98593 10.22714 2075 ft 7 kts 180°
2026-04-10 12:54 47.98529 10.22706 2075 ft 11 kts 192°
2026-04-10 12:54 47.98472 10.22634 2076 ft 10 kts 237°
2026-04-10 12:54 47.98434 10.22548 2076 ft 9 kts 221°
2026-04-10 12:55 47.98375 10.22559 2076 ft 8 kts 152°
2026-04-10 12:55 47.98354 10.22621 2078 ft 6 kts 64°
2026-04-10 12:55 47.98379 10.22685 2078 ft 11 kts 59°
2026-04-10 12:55 47.98548 10.23110 2074 ft 82 kts 59°
2026-04-10 12:56 47.98948 10.24118 2060 ft 142 kts 59°
2026-04-10 12:56 47.99516 10.25565 2214 ft 174 kts 58°
2026-04-10 12:56 48.00106 10.27094 2966 ft 171 kts 57°
2026-04-10 12:56 48.00649 10.28660 3654 ft 173 kts 60°
2026-04-10 12:57 48.01152 10.30256 4251 ft 170 kts 57°
2026-04-10 12:57 48.01804 10.31860 4523 ft 188 kts 51°
2026-04-10 12:57 48.02559 10.33476 4915 ft 199 kts 50°
2026-04-10 12:57 48.03366 10.35303 5231 ft 218 kts 53°
2026-04-10 12:58 48.03963 10.37418 5572 ft 238 kts 79°
2026-04-10 12:58 48.03682 10.39959 5918 ft 257 kts 117°
2026-04-10 12:58 48.02565 10.42104 6255 ft 273 kts 143°
2026-04-10 12:58 48.00989 10.43399 7338 ft 249 kts 169°
2026-04-10 12:59 47.99340 10.43580 7967 ft 243 kts 193°
2026-04-10 12:59 47.97641 10.43071 8390 ft 252 kts 201°
2026-04-10 12:59 47.95940 10.42310 8775 ft 266 kts 202°
2026-04-10 12:59 47.94106 10.41507 9180 ft 281 kts 200°
2026-04-10 13:00 47.92199 10.40785 9752 ft 289 kts 199°
2026-04-10 13:00 47.90273 10.40128 10369 ft 293 kts 198°
2026-04-10 13:00 47.88246 10.39457 10750 ft 306 kts 198°
2026-04-10 13:00 47.86132 10.38755 11124 ft 320 kts 198°
2026-04-10 13:01 47.83922 10.38021 11543 ft 331 kts 198°
2026-04-10 13:01 47.81623 10.37258 11940 ft 344 kts 198°
2026-04-10 13:01 47.79243 10.36470 12338 ft 357 kts 198°
2026-04-10 13:01 47.76796 10.35661 12911 ft 363 kts 198°
2026-04-10 13:02 47.74352 10.34855 13574 ft 367 kts 199°
2026-04-10 13:02 47.71827 10.34127 14300 ft 371 kts 196°
2026-04-10 13:02 47.69290 10.33516 14994 ft 374 kts 195°
2026-04-10 13:02 47.66694 10.32944 15704 ft 378 kts 193°
2026-04-10 13:03 47.64106 10.32380 16281 ft 383 kts 193°
2026-04-10 13:03 47.61446 10.31786 16811 ft 389 kts 194°
2026-04-10 13:03 47.58717 10.31362 17411 ft 399 kts 187°
2026-04-10 13:03 47.55909 10.31729 17968 ft 415 kts 171°
2026-04-10 13:04 47.53222 10.33329 18562 ft 428 kts 152°
2026-04-10 13:04 47.50746 10.35827 19156 ft 433 kts 145°
2026-04-10 13:04 47.48319 10.38538 19694 ft 440 kts 144°
2026-04-10 13:04 47.45899 10.41278 20219 ft 446 kts 144°
2026-04-10 13:05 47.43390 10.44086 20746 ft 451 kts 145°
2026-04-10 13:05 47.40791 10.46682 21302 ft 454 kts 153°
2026-04-10 13:05 47.37985 10.48710 21778 ft 455 kts 162°
2026-04-10 13:05 47.34959 10.50079 22184 ft 457 kts 172°
2026-04-10 13:06 47.31792 10.50764 22605 ft 459 kts 180°
2026-04-10 13:06 47.28621 10.51034 23055 ft 462 kts 183°
2026-04-10 13:06 47.25382 10.51187 23528 ft 467 kts 184°
2026-04-10 13:06 47.22111 10.51340 24003 ft 472 kts 183°
2026-04-10 13:07 47.18853 10.51541 24563 ft 476 kts 182°
2026-04-10 13:07 47.15494 10.51806 25102 ft 479 kts 182°
2026-04-10 13:07 47.12187 10.52129 25691 ft 482 kts 181°
2026-04-10 13:07 47.08846 10.52484 26156 ft 486 kts 181°
2026-04-10 13:08 47.05471 10.53020 26734 ft 492 kts 176°
2026-04-10 13:08 47.02057 10.54029 27221 ft 499 kts 170°
2026-04-10 13:08 46.98690 10.55388 27725 ft 504 kts 167°
2026-04-10 13:09 46.91974 10.58574 28635 ft 512 kts 165°
2026-04-10 13:09 46.88564 10.60257 29207 ft 512 kts 165°
2026-04-10 13:09 46.85194 10.61903 29678 ft 513 kts 165°
2026-04-10 13:09 46.81796 10.63530 30234 ft 513 kts 166°
2026-04-10 13:10 46.78452 10.65099 30931 ft 508 kts 167°
2026-04-10 13:10 46.75083 10.66655 31533 ft 505 kts 166°
2026-04-10 13:10 46.71822 10.68104 32098 ft 501 kts 168°
2026-04-10 13:10 46.68397 10.69388 32701 ft 496 kts 172°
2026-04-10 13:11 46.65074 10.70439 33235 ft 493 kts 173°
2026-04-10 13:11 46.61685 10.71413 33765 ft 489 kts 173°
2026-04-10 13:11 46.58358 10.72337 34322 ft 485 kts 173°
2026-04-10 13:11 46.55076 10.73245 34750 ft 484 kts 174°
2026-04-10 13:12 46.51784 10.74158 34996 ft 485 kts 173°
2026-04-10 13:12 46.48475 10.75084 35237 ft 487 kts 173°
2026-04-10 13:12 46.45133 10.76032 35494 ft 489 kts 173°
2026-04-10 13:12 46.41762 10.76999 35759 ft 490 kts 173°
2026-04-10 13:13 46.38428 10.77964 36067 ft 489 kts 172°
2026-04-10 13:13 46.35102 10.78935 36410 ft 487 kts 173°
2026-04-10 13:13 46.31794 10.79904 36738 ft 486 kts 172°
2026-04-10 13:13 46.28505 10.80870 37056 ft 486 kts 172°
2026-04-10 13:14 46.21827 10.82830 37060 ft 489 kts 172°
2026-04-10 13:14 46.18539 10.83795 37296 ft 489 kts 173°
2026-04-10 13:14 46.15179 10.84780 37063 ft 484 kts 172°
2026-04-10 13:15 46.08640 10.86698 37037 ft 479 kts 172°
2026-04-10 13:15 46.02112 10.88599 37030 ft 483 kts 172°
2026-04-10 13:16 45.95502 10.90517 37005 ft 482 kts 172°
2026-04-10 13:16 45.88918 10.92425 36992 ft 483 kts 172°
2026-04-10 13:17 45.82345 10.94323 36986 ft 483 kts 172°
2026-04-10 13:17 45.75774 10.96216 36985 ft 483 kts 172°
2026-04-10 13:18 45.69185 10.98111 36986 ft 483 kts 172°
2026-04-10 13:18 45.62591 11.00002 36987 ft 484 kts 172°
2026-04-10 13:19 45.56028 11.01883 36986 ft 483 kts 172°
2026-04-10 13:19 45.49413 11.03772 36989 ft 486 kts 172°
2026-04-10 13:20 45.42816 11.05654 36985 ft 483 kts 172°
2026-04-10 13:20 45.36205 11.07534 36985 ft 485 kts 172°
2026-04-10 13:21 45.29599 11.09406 36987 ft 486 kts 172°
2026-04-10 13:21 45.22961 11.11286 36762 ft 482 kts 172°
2026-04-10 13:22 45.19682 11.12213 36987 ft 482 kts 172°
2026-04-10 13:22 45.16414 11.13132 36984 ft 487 kts 172°
2026-04-10 13:22 45.09742 11.15005 36980 ft 488 kts 172°
2026-04-10 13:23 45.03072 11.16878 36985 ft 489 kts 172°
2026-04-10 13:23 44.96424 11.18743 36986 ft 489 kts 172°
2026-04-10 13:24 44.89786 11.20598 36989 ft 488 kts 172°
2026-04-10 13:24 44.83087 11.22326 36989 ft 487 kts 173°
2026-04-10 13:25 44.76445 11.23932 36990 ft 488 kts 173°
2026-04-10 13:25 44.69712 11.25548 36993 ft 489 kts 173°
2026-04-10 13:26 44.63034 11.27164 36996 ft 488 kts 173°
2026-04-10 13:26 44.56342 11.28792 36995 ft 488 kts 173°
2026-04-10 13:27 44.49687 11.30414 36996 ft 489 kts 173°
2026-04-10 13:27 44.42970 11.32051 37000 ft 488 kts 173°
2026-04-10 13:28 44.36301 11.33668 37006 ft 489 kts 173°
2026-04-10 13:28 44.29609 11.35290 37006 ft 487 kts 173°
2026-04-10 13:29 44.22906 11.36912 37010 ft 488 kts 173°
2026-04-10 13:29 44.16237 11.38519 37006 ft 488 kts 172°
2026-04-10 13:30 44.09590 11.40120 37008 ft 486 kts 173°
2026-04-10 13:30 44.02907 11.41723 37010 ft 486 kts 173°
2026-04-10 13:31 43.96268 11.43313 37009 ft 487 kts 173°
2026-04-10 13:31 43.89572 11.44911 37012 ft 487 kts 173°
2026-04-10 13:32 43.82931 11.46495 37009 ft 487 kts 172°
2026-04-10 13:32 43.76253 11.48085 37008 ft 486 kts 172°
2026-04-10 13:33 43.69617 11.49662 36998 ft 484 kts 172°
2026-04-10 13:33 43.62947 11.51240 37001 ft 485 kts 173°
2026-04-10 13:34 43.56323 11.52805 37002 ft 485 kts 172°
2026-04-10 13:34 43.49675 11.54370 36994 ft 483 kts 172°
2026-04-10 13:35 43.43061 11.55925 37006 ft 484 kts 172°
2026-04-10 13:35 43.36378 11.57493 36999 ft 483 kts 172°
2026-04-10 13:36 43.29769 11.59040 36995 ft 482 kts 172°
2026-04-10 13:36 43.23167 11.60582 36927 ft 485 kts 172°
2026-04-10 13:37 43.16559 11.62087 37325 ft 484 kts 173°
2026-04-10 13:37 43.13203 11.62820 37034 ft 484 kts 173°
2026-04-10 13:37 43.09924 11.63530 37007 ft 475 kts 173°
2026-04-10 13:38 43.03350 11.64944 37001 ft 480 kts 173°
2026-04-10 13:38 42.96777 11.66355 37004 ft 480 kts 174°
2026-04-10 13:39 42.90169 11.67778 37005 ft 479 kts 174°
2026-04-10 13:39 42.83578 11.69196 37000 ft 479 kts 174°
2026-04-10 13:40 42.77044 11.70605 37010 ft 477 kts 174°
2026-04-10 13:40 42.70467 11.72020 37006 ft 479 kts 174°
2026-04-10 13:41 42.63894 11.73429 37010 ft 478 kts 173°
2026-04-10 13:41 42.57314 11.74837 37015 ft 478 kts 173°
2026-04-10 13:42 42.50775 11.76232 37013 ft 477 kts 173°
2026-04-10 13:42 42.44190 11.77637 37016 ft 477 kts 173°
2026-04-10 13:43 42.37676 11.79023 37016 ft 475 kts 174°
2026-04-10 13:43 42.31143 11.80409 37012 ft 476 kts 173°
2026-04-10 13:44 42.24614 11.81791 37021 ft 474 kts 173°
2026-04-10 13:44 42.18080 11.83172 37013 ft 474 kts 173°
2026-04-10 13:45 42.11608 11.84537 37029 ft 473 kts 173°
2026-04-10 13:45 42.05086 11.85909 37014 ft 473 kts 173°
2026-04-10 13:46 41.98587 11.87274 37026 ft 474 kts 173°
2026-04-10 13:46 41.92056 11.88642 37027 ft 473 kts 173°
2026-04-10 13:47 41.85594 11.89995 37028 ft 472 kts 173°
2026-04-10 13:47 41.79083 11.91353 37026 ft 472 kts 173°
2026-04-10 13:48 41.72614 11.92700 37016 ft 472 kts 173°
2026-04-10 13:48 41.66105 11.94054 37019 ft 471 kts 173°
2026-04-10 13:49 41.59646 11.95394 37021 ft 471 kts 174°
2026-04-10 13:49 41.53200 11.96728 37016 ft 470 kts 174°
2026-04-10 13:50 41.46734 11.98065 37010 ft 470 kts 174°
2026-04-10 13:50 41.40272 11.99398 37011 ft 470 kts 174°
2026-04-10 13:51 41.33795 12.00729 37010 ft 470 kts 174°
2026-04-10 13:51 41.27355 12.02045 37010 ft 468 kts 174°
2026-04-10 13:52 41.20893 12.03264 37012 ft 469 kts 175°
2026-04-10 13:52 41.14452 12.04425 37008 ft 468 kts 175°
2026-04-10 13:53 41.08008 12.05586 37012 ft 468 kts 175°
2026-04-10 13:53 41.01563 12.06753 37012 ft 467 kts 175°
2026-04-10 13:54 40.95118 12.07925 37011 ft 468 kts 175°
2026-04-10 13:54 40.88648 12.09103 37010 ft 467 kts 175°
2026-04-10 13:55 40.82247 12.10265 37009 ft 467 kts 175°
2026-04-10 13:55 40.75795 12.11435 37009 ft 466 kts 175°
2026-04-10 13:56 40.69360 12.12600 37009 ft 467 kts 175°
2026-04-10 13:56 40.62906 12.13768 37019 ft 466 kts 175°
2026-04-10 13:57 40.56511 12.14922 37013 ft 466 kts 175°
2026-04-10 13:57 40.50079 12.16081 37005 ft 468 kts 175°
2026-04-10 13:58 40.43648 12.17238 37004 ft 465 kts 175°
2026-04-10 13:58 40.37218 12.18391 37015 ft 467 kts 175°
2026-04-10 13:59 40.30758 12.19548 37001 ft 466 kts 175°
2026-04-10 13:59 40.24336 12.20695 37021 ft 466 kts 175°
2026-04-10 14:00 40.17938 12.21836 37013 ft 464 kts 175°
2026-04-10 14:00 40.11557 12.22971 37019 ft 466 kts 175°
2026-04-10 14:01 40.05121 12.24116 37019 ft 465 kts 175°
2026-04-10 14:01 39.98739 12.25248 37019 ft 465 kts 175°
2026-04-10 14:02 39.92312 12.26386 37026 ft 465 kts 175°
2026-04-10 14:02 39.85901 12.27518 37025 ft 465 kts 175°
2026-04-10 14:03 39.79486 12.28648 37038 ft 466 kts 176°
2026-04-10 14:03 39.76235 12.29219 36621 ft 472 kts 176°
2026-04-10 14:03 39.72992 12.29787 35983 ft 471 kts 175°
2026-04-10 14:04 39.69774 12.30354 35356 ft 470 kts 176°
2026-04-10 14:04 39.66519 12.30927 34725 ft 469 kts 176°
2026-04-10 14:04 39.63318 12.31490 34117 ft 468 kts 175°
2026-04-10 14:05 39.56844 12.32625 32939 ft 468 kts 175°
2026-04-10 14:05 39.53651 12.33183 32346 ft 466 kts 175°
2026-04-10 14:05 39.50431 12.33746 31756 ft 465 kts 175°
2026-04-10 14:05 39.47229 12.34304 31161 ft 463 kts 175°
2026-04-10 14:06 39.44067 12.34855 30577 ft 461 kts 175°
2026-04-10 14:06 39.40909 12.35406 29975 ft 460 kts 174°
2026-04-10 14:06 39.37729 12.35961 29348 ft 460 kts 174°
2026-04-10 14:06 39.34539 12.36515 28719 ft 463 kts 174°
2026-04-10 14:07 39.31356 12.37067 28100 ft 465 kts 174°
2026-04-10 14:07 39.28154 12.37623 27480 ft 465 kts 174°
2026-04-10 14:07 39.24952 12.38178 26866 ft 466 kts 174°
2026-04-10 14:07 39.21767 12.38730 26260 ft 467 kts 174°
2026-04-10 14:08 39.18507 12.39295 25653 ft 469 kts 174°
2026-04-10 14:08 39.15292 12.39851 25055 ft 469 kts 174°
2026-04-10 14:08 39.12076 12.40407 24453 ft 466 kts 174°
2026-04-10 14:08 39.08897 12.40957 23857 ft 462 kts 174°
2026-04-10 14:09 39.05731 12.41505 23262 ft 458 kts 174°
2026-04-10 14:09 39.02583 12.42049 22671 ft 454 kts 174°
2026-04-10 14:09 38.99435 12.42593 22072 ft 450 kts 174°
2026-04-10 14:09 38.96392 12.43118 21489 ft 446 kts 174°
2026-04-10 14:10 38.93314 12.43768 20895 ft 443 kts 169°
2026-04-10 14:10 38.90381 12.44888 20316 ft 441 kts 159°
2026-04-10 14:10 38.87645 12.46597 19736 ft 438 kts 149°
2026-04-10 14:10 38.85183 12.48856 19152 ft 434 kts 139°
2026-04-10 14:11 38.83113 12.51632 18561 ft 429 kts 125°
2026-04-10 14:11 38.81611 12.54870 18034 ft 422 kts 115°
2026-04-10 14:11 38.80426 12.58271 17501 ft 416 kts 111°
2026-04-10 14:11 38.79335 12.61696 16972 ft 413 kts 110°
2026-04-10 14:12 38.78228 12.65054 16451 ft 410 kts 112°
2026-04-10 14:12 38.77058 12.68343 15910 ft 407 kts 114°
2026-04-10 14:12 38.75811 12.71609 15380 ft 402 kts 116°
2026-04-10 14:12 38.74553 12.74744 14880 ft 398 kts 117°
2026-04-10 14:13 38.73260 12.77878 14401 ft 395 kts 117°
2026-04-10 14:13 38.71977 12.80948 13909 ft 389 kts 117°
2026-04-10 14:13 38.70712 12.83963 13400 ft 385 kts 117°
2026-04-10 14:13 38.69452 12.86963 12908 ft 380 kts 117°
2026-04-10 14:14 38.68224 12.89894 12413 ft 376 kts 117°
2026-04-10 14:14 38.66996 12.92827 11912 ft 372 kts 117°
2026-04-10 14:14 38.65793 12.95706 11414 ft 368 kts 117°
2026-04-10 14:14 38.64584 12.98600 11033 ft 361 kts 117°
2026-04-10 14:15 38.63433 13.01351 10912 ft 346 kts 117°
2026-04-10 14:15 38.62302 13.04052 10657 ft 337 kts 117°
2026-04-10 14:15 38.61223 13.06631 10377 ft 323 kts 117°
2026-04-10 14:15 38.60193 13.09089 10032 ft 312 kts 117°
2026-04-10 14:16 38.59198 13.11463 9609 ft 310 kts 117°
2026-04-10 14:16 38.58188 13.13873 9097 ft 313 kts 117°
2026-04-10 14:16 38.57158 13.16328 8602 ft 315 kts 117°
2026-04-10 14:16 38.56117 13.18803 8099 ft 316 kts 117°
2026-04-10 14:17 38.55074 13.21251 7614 ft 315 kts 120°
2026-04-10 14:17 38.53847 13.23506 7228 ft 303 kts 130°
2026-04-10 14:17 38.52439 13.25453 6858 ft 292 kts 135°
2026-04-10 14:17 38.51024 13.27206 6499 ft 283 kts 136°
2026-04-10 14:18 38.49600 13.28946 6128 ft 280 kts 136°
2026-04-10 14:18 38.48210 13.30677 5812 ft 277 kts 135°
2026-04-10 14:18 38.46863 13.32390 5567 ft 277 kts 135°
2026-04-10 14:18 38.45495 13.34148 5313 ft 275 kts 135°
2026-04-10 14:19 38.44153 13.35882 5066 ft 273 kts 135°
2026-04-10 14:19 38.42835 13.37586 4814 ft 265 kts 135°
2026-04-10 14:19 38.41579 13.39208 4564 ft 253 kts 135°
2026-04-10 14:19 38.40369 13.40769 4335 ft 244 kts 136°
2026-04-10 14:20 38.39069 13.42154 4089 ft 240 kts 150°
2026-04-10 14:20 38.37577 13.42954 3812 ft 230 kts 165°
2026-04-10 14:20 38.36050 13.43489 3525 ft 222 kts 166°
2026-04-10 14:20 38.34604 13.44014 3474 ft 216 kts 164°
2026-04-10 14:21 38.33141 13.44591 3467 ft 218 kts 163°
2026-04-10 14:21 38.31675 13.45046 3465 ft 217 kts 176°
2026-04-10 14:21 38.30210 13.44732 3469 ft 214 kts 211°
2026-04-10 14:21 38.29141 13.43475 3470 ft 210 kts 239°
2026-04-10 14:22 38.28498 13.41807 3468 ft 209 kts 248°
2026-04-10 14:22 38.27943 13.40095 3469 ft 208 kts 248°
2026-04-10 14:22 38.27379 13.38391 3468 ft 208 kts 248°
2026-04-10 14:22 38.26815 13.36704 3473 ft 209 kts 248°
2026-04-10 14:23 38.26249 13.35006 3474 ft 208 kts 248°
2026-04-10 14:23 38.25679 13.33294 3472 ft 209 kts 248°
2026-04-10 14:23 38.25118 13.31580 3274 ft 212 kts 248°
2026-04-10 14:23 38.24553 13.29857 2994 ft 210 kts 248°
2026-04-10 14:24 38.23989 13.28155 2691 ft 208 kts 248°
2026-04-10 14:24 38.23429 13.26477 2416 ft 205 kts 248°
2026-04-10 14:24 38.22872 13.24817 2146 ft 202 kts 248°
2026-04-10 14:24 38.22321 13.23180 1880 ft 197 kts 247°
2026-04-10 14:25 38.21800 13.21634 1636 ft 182 kts 247°
2026-04-10 14:25 38.21325 13.20223 1404 ft 167 kts 247°
2026-04-10 14:25 38.20857 13.18941 1169 ft 154 kts 242°
2026-04-10 14:25 38.20453 13.17725 993 ft 150 kts 252°
2026-04-10 14:26 38.20085 13.16489 826 ft 150 kts 248°
2026-04-10 14:26 38.19668 13.15278 675 ft 147 kts 248°
2026-04-10 14:26 38.19267 13.14105 509 ft 143 kts 249°
2026-04-10 14:26 38.18870 13.12942 286 ft 144 kts 247°
2026-04-10 14:27 38.18482 13.11768 103 ft 141 kts 249°
2026-04-10 14:27 38.18132 13.10730 88 ft 106 kts 248°
2026-04-10 14:27 38.17893 13.10018 75 ft 76 kts 248°
2026-04-10 14:27 38.17697 13.09442 60 ft 67 kts 247°
2026-04-10 14:28 38.17550 13.09006 49 ft 40 kts 247°
2026-04-10 14:28 38.17489 13.08793 47 ft 13 kts 287°
2026-04-10 14:28 38.17575 13.08799 42 ft 15 kts 35°
2026-04-10 14:28 38.17667 13.08884 40 ft 16 kts 37°
2026-04-10 14:29 38.17746 13.08981 40 ft 15 kts 62°
2026-04-10 14:29 38.17793 13.09117 44 ft 17 kts 66°
2026-04-10 14:29 38.17838 13.09243 47 ft 14 kts 65°
2026-04-10 14:29 38.17875 13.09354 50 ft 14 kts 68°
2026-04-10 14:30 38.17921 13.09493 54 ft 17 kts 67°
2026-04-10 14:30 38.17964 13.09620 57 ft 14 kts 66°
2026-04-10 14:30 38.18012 13.09765 61 ft 20 kts 66°
2026-04-10 14:30 38.18066 13.09870 61 ft 10 kts
2026-04-10 14:31 38.18134 13.09893 58 ft 11 kts 65°
2026-04-10 14:31 38.18167 13.09992 60 ft 14 kts 68°
2026-04-10 14:31 38.18197 13.10078 62 ft 2 kts 66°
2026-04-10 14:31 38.18198 13.10082 62 ft 1 kts 66°
2026-04-10 14:32 38.18210 13.10115 63 ft 6 kts 66°
2026-04-10 14:32 38.18234 13.10187 65 ft 11 kts 67°
2026-04-10 14:32 38.18262 13.10274 67 ft 11 kts 67°
2026-04-10 14:32 38.18302 13.10391 68 ft 14 kts 66°
2026-04-10 14:33 38.18344 13.10480 69 ft 10 kts 27°
2026-04-10 14:33 38.18402 13.10505 68 ft 2 kts
2026-04-10 14:33 38.18441 13.10495 66 ft 8 kts 338°
2026-04-10 14:33 38.18486 13.10470 63 ft 3 kts 335°
2026-04-10 14:34 38.18494 13.10465 63 ft 0 kts 339°